[[{"header":{"parameterUnit":"m.s-1","parameterCategory":1,"la1":30.2991,"la2":30.254,"lo1":-89.0895,"lo2":-89.0444,"dy":0.0017,"dx":0.0017,"nx":28,"ny":28,"refTime":"2024-09-26T03:00:00:Z","depth":0,"parameterNumber":2,"parameterNumberName":"U-component_of_WINDS"},"data":[0,0,0,0,0,0,0,0,0,0,0,0,0,0,0,0,0,0,0,0,0,0,0,0,0,0,0,0,0,0,0,0,0,0,0,0,0,0,0,0,0,0,0,0,0,0,0,0,0,0,0,0,0,0,0,0,0,0,7.2843,7.2844,0,7.295,7.2951,7.2952,7.288,7.2877,7.2873,7.287,7.2983,7.2989,7.2995,0,0,0,0,0,0,0,0,0,0,0,0,0,7.2579,7.2584,7.2843,7.2844,7.2845,7.295,7.2951,7.2953,7.2881,7.2877,7.2872,7.2869,7.2981,7.2988,7.2995,0,0,0,0,0,0,0,0,0,0,0,0,0,7.2691,7.2586,7.2842,7.2822,7.2821,7.2949,7.2951,7.2953,7.2881,7.2876,7.2871,7.2867,7.2978,7.2987,7.2996,7.3151,0,0,7.3024,7.3028,0,0,0,0,0,0,0,0,7.2684,7.27,7.2824,7.2823,7.2823,7.2896,7.2899,7.302,7.2883,7.2859,7.287,7.2864,7.2958,7.2969,7.3,7.3157,7.3161,7.3025,7.303,7.3034,7.3037,0,0,0,0,0,0,0,7.2677,7.2695,7.2885,7.2825,7.2825,7.2808,7.2819,7.2922,7.2935,7.286,7.2855,7.2869,7.2957,7.2991,7.3002,7.3163,7.3024,7.3033,7.3038,7.3042,7.3455,7.346,0,0,0,0,0,0,7.267,7.2689,7.2882,7.2888,7.274,7.2817,7.2829,7.2878,7.2934,7.2937,7.2873,7.2865,7.2978,7.2991,7.3005,7.3192,7.3034,7.3043,7.3048,7.3449,7.3456,7.3462,0,0,0,0,0,0,7.2665,7.2688,7.2877,7.2788,7.281,7.2827,7.2883,7.2883,7.2916,7.2943,7.2945,7.2905,7.2975,7.2993,7.3116,7.3195,7.3047,7.3055,7.3443,7.3451,7.3459,7.3566,0,0,0,0,0,0,7.2658,7.2687,7.2745,7.2789,7.2815,7.2985,7.2887,7.2888,7.2932,7.2923,7.2974,7.2978,7.2972,7.3103,7.3125,7.3205,7.3062,7.3436,7.3447,7.3456,7.3556,7.3577,7.3595,0,0,0,0,0,7.2648,7.2771,7.2748,7.2772,7.2888,7.299,7.3005,7.2995,7.2939,7.2998,7.3015,7.2976,7.3183,7.3116,7.314,7.3224,7.3431,7.3444,7.3456,7.3547,7.3573,7.3595,0,0,0,0,0,0,7.2736,7.2776,7.2752,7.2892,7.2938,7.2977,7.3052,7.3023,7.3087,7.3075,7.3062,7.3074,7.3203,7.3226,7.3151,7.3378,7.3298,7.3316,7.3359,7.3384,7.3403,7.3395,7.307,0,0,0,0,0,7.2771,7.2849,7.2881,7.3002,7.3026,7.3035,7.3079,7.3068,7.3115,7.3135,7.3161,7.321,7.3285,7.3336,7.3407,7.3558,7.3569,7.3628,7.3648,7.3664,7.368,7.3764,7.3791,7.3503,7.3503,7.3502,0,0,7.2846,7.2877,7.2928,7.302,7.3054,7.3137,7.3052,7.3142,7.3204,7.3149,7.3267,7.3288,7.3341,7.348,7.3542,7.3503,7.3762,7.368,7.3693,7.37,7.3779,7.3806,7.3831,7.3511,7.351,7.3508,0,0,7.3023,7.3055,7.3159,7.3196,7.3249,7.3254,7.328,7.3324,7.3336,7.3454,7.3415,7.3488,7.3619,7.3659,7.3696,7.3891,7.3858,7.3915,7.4019,7.41,7.4123,7.4143,7.4214,7.4239,7.393,7.3931,7.3931,0,7.3109,7.3231,7.3217,7.3311,7.3354,7.3307,7.3414,7.345,7.3524,7.3555,7.351,7.3674,7.3706,7.3854,7.3902,7.3933,7.3963,7.3909,7.4121,7.4141,7.4159,7.4227,7.4253,7.3937,7.3937,7.3936,7.3935,0,7.3335,7.342,7.3498,7.3571,7.3622,7.3722,7.3725,7.3779,7.3763,7.3774,7.3896,7.3934,7.4012,7.4046,7.4032,7.4194,7.4167,7.4122,7.4041,7.4194,7.4257,7.4282,7.3947,7.3944,7.3942,7.3941,0,0,7.357,7.3634,7.3663,7.3696,7.3752,7.3818,7.3917,7.3993,7.404,7.4093,7.4177,7.4289,7.4248,7.429,7.428,7.4352,7.4506,7.4298,7.4299,7.4336,7.4687,7.4722,7.4752,7.4484,7.4489,7.4492,7.4683,0,7.3752,7.3923,7.3914,7.4075,7.4155,7.4112,7.4198,7.4242,7.4256,7.4326,7.434,7.4421,7.4359,7.4385,7.4454,7.4472,7.4576,7.4458,7.4563,7.4567,7.4551,7.4785,7.4821,7.4999,7.4708,7.4712,7.4715,0,7.3987,7.4048,7.4216,7.4261,7.4294,7.4372,7.4442,7.4509,7.4559,7.4564,7.4612,7.4591,7.4693,7.4609,7.4749,7.4669,7.4712,7.4728,7.4734,7.4744,7.465,7.4802,7.5056,7.5083,7.4753,7.475,7.4747,0,7.4143,7.4267,7.4385,7.4414,7.4469,7.4525,7.4551,7.4596,7.4643,7.4705,7.4735,7.4808,7.4849,7.4906,7.4906,7.4845,7.5049,7.4964,7.5057,7.5057,7.5102,7.5099,7.5367,7.5128,7.5128,7.5127,7.5127,0,7.4348,7.4453,7.4456,7.4529,7.4646,7.4635,7.4752,7.4772,7.4813,7.4889,7.4857,7.493,7.4924,7.4999,7.4999,7.5116,7.5134,7.5142,7.5141,7.5146,7.5145,7.5174,7.5162,7.5134,7.5133,7.5131,7.513,0,7.4543,7.4549,7.4674,7.4716,7.4729,7.4814,7.4851,7.492,7.493,7.5028,7.505,7.5067,7.5153,7.5158,7.5257,7.5257,7.54,7.5385,7.5383,7.5381,7.5473,7.5465,7.577,7.581,7.5544,7.5546,7.5548,0,7.4674,7.4754,7.4804,7.4853,7.4882,7.4961,7.5008,7.5002,7.5053,7.5117,7.5179,7.5261,7.5327,7.5466,7.5488,7.5564,7.5551,7.5653,7.5562,7.5565,7.5554,7.555,7.5558,7.5671,7.5674,7.5676,7.5678,0,7.4906,7.4905,7.4974,7.5046,7.5104,7.516,7.5212,7.5254,7.5253,7.5313,7.54,7.5451,7.5552,7.5635,7.5709,7.5737,7.5709,7.5706,7.5732,7.5737,7.5733,7.5738,7.5432,7.5699,7.5697,7.5696,7.5694,7.5693,7.5073,7.5143,7.519,7.5269,7.5307,7.5357,7.5425,7.5444,7.5516,7.5597,7.5589,7.5686,7.5735,7.5832,7.5865,7.5942,7.5907,7.5944,7.5954,7.5963,7.5973,7.5721,7.5955,7.5955,7.5954,7.5954,7.5953,0,7.5305,7.5333,7.5406,7.548,7.5542,7.5509,7.5565,7.562,7.5705,7.5753,7.5819,7.5919,7.6,7.6028,7.6107,7.6163,7.6152,7.6184,7.618,7.6187,7.5999,7.597,7.6191,7.6191,7.6191,7.6191,7.6191,7.6191,7.5432,7.5549,7.5554,7.569,7.5717,7.5811,7.5846,7.5893,7.5931,7.6045,7.6111,7.6128,7.6169,7.6251,7.6323,7.633,7.6361,7.6399,7.64,7.6224,7.62,7.6177,7.6149,7.6405,7.6406,7.6581,7.6583,7.6584]},{"header":{"parameterUnit":"m.s-1","parameterCategory":1,"la1":30.2991,"la2":30.254,"lo1":-89.0895,"lo2":-89.0444,"dy":0.0017,"dx":0.0017,"nx":28,"ny":28,"refTime":"2024-09-26T03:00:00:Z","depth":0,"parameterNumber":3,"parameterNumberName":"V-component_of_WINDS"},"data":[0,0,0,0,0,0,0,0,0,0,0,0,0,0,0,0,0,0,0,0,0,0,0,0,0,0,0,0,0,0,0,0,0,0,0,0,0,0,0,0,0,0,0,0,0,0,0,0,0,0,0,0,0,0,0,0,0,0,1.0592,1.0593,0,1.0655,1.0656,1.0657,1.0678,1.0678,1.0678,1.0677,1.0742,1.0744,1.0746,0,0,0,0,0,0,0,0,0,0,0,0,0,1.0489,1.0491,1.0592,1.0593,1.0594,1.0655,1.0656,1.0657,1.0678,1.0678,1.0677,1.0677,1.0741,1.0743,1.0746,0,0,0,0,0,0,0,0,0,0,0,0,0,1.0541,1.0492,1.0592,1.0612,1.0614,1.0655,1.0656,1.0657,1.0678,1.0678,1.0677,1.0677,1.074,1.0743,1.0746,1.0772,0,0,1.0755,1.0756,0,0,0,0,0,0,0,0,1.0538,1.0545,1.0608,1.0611,1.0613,1.0658,1.0643,1.0696,1.0678,1.0654,1.0677,1.0677,1.0714,1.0719,1.0732,1.0775,1.0778,1.0755,1.0757,1.0758,1.0759,0,0,0,0,0,0,0,1.0535,1.0542,1.0617,1.0609,1.0612,1.0617,1.0624,1.0653,1.0686,1.0656,1.0658,1.0665,1.0716,1.0729,1.0734,1.0779,1.0755,1.0758,1.076,1.0761,1.0844,1.0845,0,0,0,0,0,0,1.0528,1.0539,1.0615,1.0619,1.0574,1.0619,1.0627,1.0644,1.0685,1.0691,1.0665,1.0666,1.0724,1.073,1.0736,1.0768,1.0758,1.0761,1.0763,1.0844,1.0844,1.0845,0,0,0,0,0,0,1.0526,1.0534,1.0613,1.058,1.059,1.0622,1.0641,1.0646,1.0659,1.0692,1.0698,1.0673,1.0724,1.0732,1.0763,1.0771,1.0762,1.0765,1.0843,1.0844,1.0845,1.0833,0,0,0,0,0,0,1.0523,1.0534,1.0544,1.058,1.0592,1.0638,1.0641,1.0647,1.0664,1.0666,1.0701,1.0707,1.0725,1.0758,1.0765,1.0775,1.0767,1.0843,1.0844,1.0844,1.0833,1.0833,1.0834,0,0,0,0,0,1.0519,1.0539,1.0545,1.0554,1.0606,1.0639,1.0646,1.0666,1.0665,1.0675,1.0696,1.0706,1.0768,1.0761,1.077,1.078,1.0842,1.0843,1.0844,1.0833,1.0833,1.0834,0,0,0,0,0,0,1.0503,1.0544,1.0551,1.0583,1.0607,1.0642,1.0657,1.0666,1.0691,1.0691,1.0715,1.0723,1.0752,1.0769,1.076,1.0806,1.0806,1.0809,1.0794,1.0795,1.0795,1.079,1.077,0,0,0,0,0,1.0504,1.0528,1.0561,1.0586,1.0598,1.0625,1.064,1.0654,1.068,1.069,1.0714,1.0739,1.0764,1.078,1.0806,1.0835,1.0843,1.0846,1.0846,1.0847,1.0849,1.0865,1.0866,1.0848,1.0848,1.0848,0,0,1.0505,1.053,1.0543,1.0584,1.0604,1.0628,1.0634,1.0659,1.0677,1.0694,1.0725,1.0742,1.0771,1.0801,1.0816,1.0816,1.0855,1.0848,1.0848,1.085,1.0866,1.0867,1.0869,1.0849,1.0849,1.0849,0,0,1.0519,1.054,1.0563,1.0583,1.0614,1.0631,1.0636,1.067,1.0682,1.0713,1.0726,1.0747,1.079,1.0811,1.0826,1.0846,1.0855,1.0853,1.0855,1.087,1.0872,1.0873,1.088,1.0882,1.0855,1.0855,1.0855,0,1.0516,1.0553,1.0573,1.0597,1.0614,1.0631,1.0653,1.0672,1.0709,1.072,1.0721,1.0774,1.0795,1.083,1.0834,1.0847,1.0853,1.085,1.087,1.0872,1.0873,1.0879,1.0882,1.0855,1.0855,1.0855,1.0855,0,1.0547,1.0572,1.0587,1.0622,1.0641,1.0664,1.0687,1.0704,1.0715,1.0732,1.0762,1.0787,1.0817,1.0826,1.0838,1.0862,1.0861,1.0865,1.0866,1.0874,1.088,1.0883,1.0854,1.0854,1.0854,1.0855,0,0,1.0555,1.06,1.0605,1.062,1.0655,1.0674,1.0697,1.0727,1.074,1.0764,1.0784,1.0819,1.0823,1.0841,1.0855,1.0868,1.088,1.087,1.0871,1.0871,1.0907,1.0904,1.0906,1.0886,1.0887,1.0887,1.0905,0,1.0573,1.0616,1.0634,1.0668,1.0691,1.0706,1.0726,1.0749,1.0765,1.0786,1.0804,1.0829,1.0832,1.0843,1.0856,1.0876,1.0888,1.0875,1.0905,1.0905,1.0897,1.091,1.0907,1.0922,1.0907,1.0908,1.0908,0,1.06,1.0624,1.0661,1.0691,1.0701,1.0719,1.0746,1.0767,1.0792,1.0803,1.0822,1.0835,1.0859,1.0857,1.089,1.0881,1.0894,1.0905,1.0906,1.091,1.0907,1.0914,1.0928,1.093,1.0912,1.0912,1.0912,0,1.0601,1.0643,1.0669,1.0682,1.0719,1.0731,1.0746,1.0771,1.0787,1.0811,1.0821,1.0847,1.0862,1.0882,1.09,1.0897,1.0932,1.0932,1.0941,1.094,1.0948,1.0947,1.0964,1.0956,1.0956,1.0956,1.0956,0,1.0619,1.0641,1.067,1.0687,1.0711,1.0731,1.0754,1.0771,1.0793,1.0812,1.0827,1.0845,1.0869,1.0889,1.0904,1.0929,1.0935,1.0944,1.0948,1.0943,1.0942,1.0952,1.0952,1.0957,1.0956,1.0956,1.0956,0,1.0625,1.0645,1.0676,1.0707,1.0715,1.0731,1.0758,1.0774,1.079,1.0815,1.0822,1.0847,1.0872,1.0893,1.0925,1.0935,1.0961,1.0965,1.0952,1.0954,1.0962,1.0961,1.0986,1.099,1.098,1.098,1.098,0,1.0635,1.0652,1.0685,1.0699,1.0714,1.0736,1.0752,1.0772,1.0788,1.0818,1.083,1.0856,1.0878,1.0917,1.0938,1.0963,1.0968,1.0975,1.0972,1.0966,1.0967,1.0966,1.0968,1.0975,1.0975,1.0975,1.0975,0,1.0651,1.066,1.0683,1.0708,1.0727,1.0748,1.077,1.078,1.0804,1.0821,1.0847,1.0863,1.0896,1.0921,1.0948,1.0964,1.0973,1.0976,1.0979,1.0974,1.0966,1.097,1.0953,1.0975,1.0975,1.0975,1.0975,1.0975,1.0659,1.0674,1.07,1.0724,1.0742,1.0761,1.0778,1.0796,1.0817,1.0846,1.0856,1.0882,1.0906,1.0942,1.0958,1.0978,1.0979,1.0984,1.0985,1.0986,1.0985,1.0962,1.0983,1.0983,1.0983,1.0983,1.0983,0,1.0676,1.0692,1.0714,1.0744,1.0762,1.0769,1.0793,1.0808,1.0831,1.0852,1.0873,1.0901,1.0925,1.0948,1.0973,1.0985,1.0989,1.099,1.099,1.0993,1.0983,1.0977,1.0986,1.0986,1.0986,1.0986,1.0986,1.0986,1.0687,1.0712,1.0724,1.0758,1.0775,1.08,1.0813,1.0831,1.0848,1.0879,1.0899,1.0913,1.0935,1.0961,1.0983,1.0989,1.0997,1.0997,1.1004,1.0995,1.0994,1.0993,1.0988,1.0999,1.0999,1.1013,1.1013,1.1013]}]]